Flag for U.S.A. Weather past 2 weeks in Visalia, California, U.S.A.

Now
61 °F

Sunny.


Feels Like: 61 °F
Forecast: 43 / 57 °F
Wind: 5 mph from Northwest

Location: Visalia Municipal

Current Time: Dec 18, 2014 at 3:36:54 PM

Latest Report: Dec 18, 2014 at 3:15 PM


Visibility: 10 mi

Pressure: 30.17 "Hg

Humidity: 55%

Dew point: 45 °F

Location of VisaliaLocation

Historic Weather in Visalia — Graph

°F

Visalia temperature yesterday

Maximum temperature yesterday: 55 °F (at 2:15 PM)
Minimum temperature yesterday: 46 °F (at 7:35 PM)
Average temperature yesterday: 50 °F

Past Weeks' High & Low Weather Summary

 TemperatureHumidityPressure
High70 °F (Dec 3, 2:15 PM)94% (Dec 8, 12:55 PM)30.25 "Hg (Dec 8, 12:55 PM)
Low39 °F (Dec 15, 12:55 AM)40% (Dec 11, 11:55 PM)29.56 "Hg (Dec 11, 11:15 PM)
Average52 °F76%30.06 "Hg
* Reported Dec 3 2:15 PM — Dec 18 2:35 PM, Visalia, Weather by CustomWeather, © 2014

Note: Actual official high and low records may vary slightly from our data, if they occured in-between our weather recording intervals... More about our weather records

Advertising

Visalia weather history for previous 24 hours

 ConditionsComfort  
Time TempWeatherWind HumidityBarometerVisibility
2:35 PM
Dec 18
61 °FSunny.3 mph55%30.17 "Hg10 mi
2:15 PM61 °FSunny.5 mph55%30.17 "Hg7 mi
1:55 PM61 °FSunny.6 mph55%30.17 "Hg10 mi
1:35 PM61 °FSunny.5 mph55%30.17 "Hg10 mi
1:15 PM61 °FSunny.No wind55%30.18 "Hg10 mi
12:55 PM59 °FSunny.No wind55%30.17 "Hg10 mi
12:35 PM57 °FSunny.No wind59%30.18 "Hg10 mi
12:15 PM59 °FSunny.No wind59%30.18 "Hg10 mi
11:55 AM57 °FSunny.No wind63%30.19 "Hg10 mi
11:35 AM57 °FSunny.3 mph63%30.19 "Hg10 mi
11:15 AM55 °FSunny.No wind67%30.21 "Hg10 mi
10:55 AM55 °FSunny.3 mph67%30.21 "Hg10 mi
10:35 AM55 °FSunny.5 mph67%30.22 "Hg10 mi
10:15 AM54 °FSunny.6 mph72%30.22 "Hg10 mi
9:55 AM54 °FScattered clouds.6 mph72%30.22 "Hg10 mi
9:35 AM54 °FOvercast.5 mph72%30.22 "Hg10 mi
9:15 AM52 °FScattered clouds.3 mph77%30.21 "Hg10 mi
8:55 AM50 °FSunny.No wind82%30.20 "Hg10 mi
8:35 AM48 °FSunny.No wind82%30.19 "Hg10 mi
8:15 AM46 °FSunny.No wind82%30.18 "Hg10 mi
7:55 AM46 °FSunny.3 mph76%30.17 "Hg10 mi
7:35 AM45 °FSunny.5 mph81%30.16 "Hg10 mi
7:15 AM45 °FSunny.6 mph81%30.16 "Hg10 mi
6:55 AM45 °FClear.5 mph81%30.16 "Hg10 mi
6:35 AM45 °FClear.No wind81%30.15 "Hg10 mi
6:15 AM45 °FClear.7 mph81%30.14 "Hg10 mi
5:55 AM45 °FPassing clouds.6 mph76%30.14 "Hg5 mi
5:35 AM45 °FPartly cloudy.3 mph76%30.14 "Hg5 mi
5:15 AM45 °FPassing clouds.No wind76%30.14 "Hg5 mi
4:55 AM45 °FPassing clouds.No wind81%30.14 "Hg6 mi
4:35 AM45 °FOvercast.5 mph81%30.12 "Hg7 mi
4:15 AM45 °FOvercast.3 mph81%30.13 "Hg6 mi
3:55 AM45 °FPassing clouds.No wind81%30.13 "Hg7 mi
3:35 AM45 °FPartly cloudy.No wind81%30.14 "Hg6 mi
3:15 AM45 °FMostly cloudy.3 mph81%30.14 "Hg6 mi
2:55 AM46 °FMostly cloudy.3 mph76%30.14 "Hg7 mi
2:35 AM46 °FMostly cloudy.3 mph82%30.14 "Hg6 mi
2:15 AM46 °FMostly cloudy.5 mph82%30.14 "Hg5 mi
1:55 AM46 °FMostly cloudy.5 mph76%30.14 "Hg5 mi
1:35 AM46 °FOvercast.3 mph76%30.14 "Hg5 mi
1:15 AM46 °FOvercast.5 mph76%30.14 "Hg5 mi
12:55 AM46 °FPassing clouds.3 mph82%30.14 "Hg5 mi
12:35 AM46 °FPassing clouds.3 mph82%30.14 "Hg5 mi
12:15 AM46 °FOvercast.3 mph82%30.15 "Hg6 mi
11:55 PM
Dec 17
46 °FOvercast.No wind82%30.15 "Hg5 mi
11:35 PM46 °FOvercast.3 mph82%30.15 "Hg5 mi
11:15 PM46 °FOvercast.3 mph82%30.15 "Hg5 mi
10:55 PM46 °FOvercast.6 mph82%30.15 "Hg7 mi
10:35 PM46 °FPassing clouds.5 mph76%30.15 "Hg6 mi
10:15 PM46 °FClear.5 mph82%30.15 "Hg7 mi
9:55 PM46 °FClear.5 mph82%30.15 "Hg5 mi
9:35 PM46 °FClear.6 mph82%30.15 "Hg5 mi
9:15 PM46 °FPassing clouds.6 mph82%30.15 "Hg5 mi
8:55 PM46 °FPassing clouds.5 mph87%30.15 "Hg5 mi
8:35 PM46 °FPassing clouds.6 mph82%30.15 "Hg4 mi
8:15 PM48 °FPassing clouds.6 mph82%30.14 "Hg5 mi
7:35 PM46 °FClear.5 mph82%30.14 "Hg5 mi
7:15 PM48 °FClear.5 mph82%30.13 "Hg7 mi
6:55 PM48 °FClear.3 mph82%30.12 "Hg9 mi
6:35 PM48 °FClear.No wind82%30.11 "Hg9 mi
6:15 PM50 °FClear.No wind76%30.11 "Hg10 mi
5:55 PM50 °FClear.6 mph76%30.10 "Hg10 mi
5:35 PM50 °FClear.No wind82%30.09 "Hg10 mi
5:15 PM52 °FClear.5 mph77%30.09 "Hg10 mi
4:55 PM54 °FClear.3 mph72%30.09 "Hg10 mi
4:35 PM54 °FSunny.3 mph72%30.09 "Hg10 mi
3:55 PM55 °FSunny.3 mph72%30.10 "Hg10 mi
3:35 PM55 °FSunny.3 mph72%30.10 "Hg10 mi
3:15 PM55 °FSunny.No wind72%30.09 "Hg10 mi
Weather by CustomWeather, © 2014

See weather overviewHow to use our weather pages